FLOCK 3P-82

Last updated on Wed Feb 14 2018 16:20:34 GMT+0000 (Coordinated Universal Time)

1 42046U 17008DC 18044.89703799 .00002253 00000-0 95571-4 0 9994 2 42046 97.4681 110.5666 0009887 74.0155 286.2171 15.24118514 54561
UTC large
Height (km)
Speed (km/s)
/
Latitude / Longitude
Inclination (degrees)
Orbital Period (minutes)
Azimuth
Elevation
Range (km)
Doppler Factor

Next 0 passes for location: London (51.5072 / 0.1276)

Sorry there are no passes over London.
FLOCK 3P-82